Date String (YYYY-MM-DD hh:mm:ss) UTC,Instrument flags,absolute air pressure of the measurement (hPa),sample flow rate (lpm),inlet stack bypass flow (lpm),air temperature of the measurement (°C),ambient temperature measured by the external sensor (°C),aerosol sample conditioner tube jacket temperature (°C),OPC LED temperature (°C),internal box temperature (°C),relative humidity of the measurement (%),span deviation,mass concentration of particles derived from Lorenz-Mie calculation of OPC scattering (μg/m³),mass concentration of particles derived from Lorenz-Mie calculation of OPC scattering (μg/m³),mass concentration of particles derived from Lorenz-Mie calculation of OPC scattering (μg/m³)
DateTimeUTC,F1_M11,P_M11,Q1_M11,Q2_M11,T1_M11,T2_M11,T3_M11,T4_M11,T5_M11,U1_M11,ZSPAN_M11,X2_M11,X0_M11,X1_M11
2023-09-10 00:00:00,SystemResetWarning,0835.3,5.01,000.00,027.7,024.6,000.0,035.9,029.1,18.4,0000.7,0005.85,0016.49,0004.62
2023-09-10 00:01:00,SystemResetWarning,0835.3,4.99,000.00,027.7,025.0,000.0,035.9,029.2,18.8,0000.8,0005.86,0016.62,0004.62
2023-09-10 00:02:00,SystemResetWarning,0835.3,5.00,000.00,027.7,025.4,000.0,035.9,029.3,18.5,0000.4,0005.79,0016.76,0004.61
2023-09-10 00:03:00,SystemResetWarning,0835.3,5.00,000.00,027.7,025.8,000.0,035.9,029.4,18.5,0000.5,0005.81,0016.87,0004.62
2023-09-10 00:04:00,SystemResetWarning,0835.3,5.01,000.00,027.8,026.2,000.0,036.0,029.5,18.7,0001.2,0005.80,0016.87,0004.62
2023-09-10 00:05:00,SystemResetWarning,0835.5,5.00,000.00,027.8,026.5,000.0,036.0,029.6,18.6,0001.1,0005.78,0017.19,0004.62
2023-09-10 00:06:00,SystemResetWarning,0835.3,4.99,000.00,027.9,026.5,000.0,036.0,029.6,18.6,0001.2,0005.72,0016.98,0004.61
2023-09-10 00:07:00,SystemResetWarning,0835.3,4.98,000.00,027.9,025.1,000.0,035.9,029.3,18.5,0001.4,0005.73,0016.47,0004.61
2023-09-10 00:08:00,SystemResetWarning,0835.2,5.01,000.00,027.8,024.1,000.0,035.9,029.2,18.6,0001.5,0005.68,0016.04,0004.60
2023-09-10 00:09:00,SystemResetWarning,0835.3,5.01,000.00,027.7,024.3,000.0,035.8,029.2,18.9,0001.6,0005.65,0016.11,0004.61
2023-09-10 00:10:00,SystemResetWarning,0835.3,4.99,000.00,027.7,024.7,000.0,035.9,029.2,18.9,0001.6,0005.60,0015.16,0004.61
2023-09-10 00:11:00,SystemResetWarning,0835.3,5.00,000.00,027.7,025.1,000.0,035.9,029.2,18.2,0001.6,0005.57,0014.41,0004.60
2023-09-10 00:12:00,SystemResetWarning,0835.3,5.01,000.00,027.7,025.5,000.0,035.9,029.3,18.1,0001.3,0005.57,0014.68,0004.59
2023-09-10 00:13:00,SystemResetWarning,0835.5,5.00,000.00,027.7,026.0,000.0,035.9,029.4,18.1,0001.2,0005.54,0014.75,0004.59
2023-09-10 00:14:00,SystemResetWarning,0835.3,4.99,000.00,027.8,026.3,000.0,036.0,029.5,18.2,0001.0,0005.54,0014.70,0004.58
2023-09-10 00:15:00,SystemResetWarning,0835.3,5.00,000.00,027.8,026.6,000.0,036.0,029.6,18.2,0000.6,0005.53,0014.87,0004.58
2023-09-10 00:16:00,SystemResetWarning,0835.3,5.01,000.00,027.9,026.7,000.0,036.0,029.7,18.2,0000.6,0005.52,0014.79,0004.58
2023-09-10 00:17:00,SystemResetWarning,0835.2,4.99,000.00,027.9,025.4,000.0,036.0,029.4,18.3,0000.7,0005.53,0014.74,0004.58
2023-09-10 00:18:00,SystemResetWarning,0835.2,5.01,000.00,027.8,024.1,000.0,035.9,029.1,18.4,0000.5,0005.49,0015.17,0004.57
2023-09-10 00:19:00,SystemResetWarning,0835.2,5.02,000.00,027.7,024.2,000.0,035.9,029.2,18.5,0000.2,0005.51,0015.60,0004.58
2023-09-10 00:20:00,SystemResetWarning,0835.3,4.99,000.00,027.7,024.6,000.0,035.9,029.1,18.5,0000.1,0005.51,0015.07,0004.58
2023-09-10 00:21:00,SystemResetWarning,0835.3,4.99,000.00,027.7,025.0,000.0,035.9,029.2,18.5,0000.2,0005.54,0015.45,0004.58
2023-09-10 00:22:00,SystemResetWarning,0835.2,5.00,000.00,027.7,025.4,000.0,035.9,029.3,18.9,0000.1,0005.60,0015.76,0004.59
2023-09-10 00:23:00,SystemResetWarning,0835.2,5.01,000.00,027.7,025.9,000.0,035.9,029.4,18.7,0000.5,0005.68,0016.36,0004.59
2023-09-10 00:24:00,SystemResetWarning,0835.2,5.00,000.00,027.8,026.2,000.0,036.0,029.5,18.3,0000.7,0005.70,0016.99,0004.58
2023-09-10 00:25:00,SystemResetWarning,0835.2,4.99,000.00,027.8,026.5,000.0,036.0,029.6,18.6,0000.8,0005.71,0017.25,0004.57
2023-09-10 00:26:00,SystemResetWarning,0835.3,5.00,000.00,027.9,026.8,000.0,036.0,029.7,18.4,0000.9,0005.71,0016.82,0004.55
2023-09-10 00:27:00,SystemResetWarning,0835.2,4.99,000.00,027.9,026.5,000.0,036.0,029.6,18.4,0000.7,0005.68,0017.07,0004.53
2023-09-10 00:28:00,SystemResetWarning,0835.2,5.00,000.00,027.9,024.8,000.0,036.0,029.2,18.3,0000.7,0005.67,0017.15,0004.52
2023-09-10 00:29:00,SystemResetWarning,0835.2,5.01,000.00,027.8,024.1,000.0,035.9,029.2,18.4,0000.6,0005.70,0017.00,0004.51
2023-09-10 00:30:00,SystemResetWarning,0835.2,5.01,000.00,027.7,024.3,000.0,035.9,029.1,18.6,0000.8,0005.69,0017.63,0004.51
2023-09-10 00:31:00,SystemResetWarning,0835.2,5.00,000.00,027.7,024.7,000.0,035.9,029.1,18.6,0000.9,0005.67,0017.79,0004.47
2023-09-10 00:32:00,SystemResetWarning,0835.2,5.01,000.00,027.7,025.1,000.0,035.9,029.2,18.9,0000.8,0005.60,0017.47,0004.44
2023-09-10 00:33:00,SystemResetWarning,0835.2,5.00,000.00,027.7,025.6,000.0,035.9,029.3,19.4,0000.9,0005.54,0017.35,0004.42
2023-09-10 00:34:00,SystemResetWarning,0835.2,5.00,000.00,027.7,026.0,000.0,036.0,029.4,20.1,0000.8,0005.44,0016.82,0004.41
2023-09-10 00:35:00,SystemResetWarning,0835.3,4.99,000.00,027.8,026.3,000.0,036.0,029.5,20.1,0000.7,0005.40,0015.53,0004.41
2023-09-10 00:36:00,SystemResetWarning,0835.3,5.00,000.00,027.8,026.6,000.0,036.0,029.6,20.0,0000.8,0005.38,0015.01,0004.40
2023-09-10 00:37:00,SystemResetWarning,0835.3,5.01,000.00,027.9,026.8,000.0,036.1,029.7,20.0,0000.6,0005.40,0015.03,0004.40
2023-09-10 00:38:00,SystemResetWarning,0835.3,4.98,000.00,027.9,026.0,000.0,036.0,029.5,19.9,0000.6,0005.41,0015.53,0004.39
2023-09-10 00:39:00,SystemResetWarning,0835.2,5.00,000.00,027.8,024.3,000.0,036.0,029.2,19.9,0000.8,0005.43,0015.56,0004.39
2023-09-10 00:40:00,SystemResetWarning,0835.2,5.01,000.00,027.8,024.0,000.0,035.9,029.1,20.0,0000.6,0005.39,0015.03,0004.40
2023-09-10 00:41:00,SystemResetWarning,0835.2,5.01,000.00,027.7,024.3,000.0,035.9,029.1,20.1,0000.7,0005.38,0014.08,0004.38
2023-09-10 00:42:00,SystemResetWarning,0835.2,5.00,000.00,027.7,024.7,000.0,035.9,029.1,20.0,0000.6,0005.41,0013.45,0004.39
2023-09-10 00:43:00,SystemResetWarning,0835.3,5.00,000.00,027.7,025.2,000.0,035.9,029.2,19.7,0000.6,0005.45,0014.22,0004.39
2023-09-10 00:44:00,SystemResetWarning,0835.3,5.00,000.00,027.7,025.6,000.0,035.9,029.3,19.6,0000.6,0005.46,0014.30,0004.38
2023-09-10 00:45:00,SystemResetWarning,0835.2,5.00,000.00,027.7,026.0,000.0,036.0,029.4,19.2,0000.4,0005.47,0014.67,0004.38
2023-09-10 00:46:00,SystemResetWarning,0835.3,5.01,000.00,027.8,026.4,000.0,036.0,029.5,18.6,0000.9,0005.49,0015.80,0004.39
2023-09-10 00:47:00,SystemResetWarning,0835.2,5.00,000.00,027.8,026.7,000.0,036.0,029.6,18.4,0000.7,0005.50,0016.25,0004.40
2023-09-10 00:48:00,SystemResetWarning,0835.2,5.00,000.00,027.9,026.9,000.0,036.1,029.7,18.1,0000.9,0005.48,0016.14,0004.40
2023-09-10 00:49:00,SystemResetWarning,0835.2,4.99,000.00,027.9,026.3,000.0,036.0,029.6,18.0,0001.2,0005.49,0016.10,0004.42
2023-09-10 00:50:00,SystemResetWarning,0835.2,5.01,000.00,027.9,024.6,000.0,036.0,029.2,18.1,0001.3,0005.47,0015.84,0004.42
2023-09-10 00:51:00,SystemResetWarning,0835.3,5.01,000.00,027.8,023.9,000.0,035.9,029.1,18.1,0001.7,0005.44,0015.63,0004.41
2023-09-10 00:52:00,SystemResetWarning,0835.3,5.01,000.00,027.7,024.2,000.0,035.9,029.1,18.1,0001.7,0005.45,0016.35,0004.41
2023-09-10 00:53:00,SystemResetWarning,0835.2,5.00,000.00,027.7,024.6,000.0,035.9,029.1,18.2,0001.6,0005.39,0016.87,0004.41
2023-09-10 00:54:00,SystemResetWarning,0835.3,5.00,000.00,027.7,025.1,000.0,035.9,029.2,18.2,0001.6,0005.36,0016.14,0004.42
2023-09-10 00:55:00,SystemResetWarning,0835.2,5.00,000.00,027.7,025.5,000.0,035.9,029.3,18.1,0001.5,0005.40,0016.28,0004.44
2023-09-10 00:56:00,SystemResetWarning,0835.2,5.01,000.00,027.7,025.9,000.0,036.0,029.4,18.1,0001.7,0005.40,0015.84,0004.43
2023-09-10 00:57:00,SystemResetWarning,0835.2,5.00,000.00,027.8,026.2,000.0,036.0,029.4,18.0,0001.3,0005.39,0015.73,0004.42
2023-09-10 00:58:00,SystemResetWarning,0835.3,5.00,000.00,027.8,026.5,000.0,036.0,029.5,18.0,0001.4,0005.35,0016.58,0004.40
2023-09-10 00:59:00,SystemResetWarning,0835.3,5.00,000.00,027.9,026.8,000.0,036.1,029.6,17.9,0001.4,0005.32,0017.46,0004.39
